Zurück zum Katalog

SL-16 DEB

AktivLEO
NORAD 22351·DEBRIS·🇷🇺 Russia

Gestartet Dec 25, 1992 von Baikonur Cosmodrome

Loading…

Nächste Überflüge (nächste 24 Stunden)

TLE

AktuellSource: Space-Track

Epoche: Sep 14, 2026, 12:12 UTC

1 22351U 92093AQ  26257.50865666  .00000240  00000-0  17297-3 0  9995
2 22351  70.9052  85.1750 0104517 321.2305  68.5798 14.04117372722215

Verfolge SL-16 DEB in Echtzeit mit AllMySat

Download on the App Store